Weather Roundup
Issued by NWS

Home | Current Version | Previous Version | Text Only | Print | Product List | Glossary On
Versions: 1 2 3 4 5 6 7 8 9 10 11 12 13 14 15 16 17 18 19 20 21 22 23 24 25 26 27 28 29 30 31 32 33 34 35 36 37 38 39 40 41 42 43 44 45 46 47 48 49 50
000
NZUS93 KARX 290810
HRRWXR

CURRENT HOURLY OBSERVATIONS ACROSS
MUCH OF THE UPPER MISSISSIPPI VALLEY
NATIONAL WEATHER SERVICE LA CROSSE WI
300 AM CDT SAT APR 29 2017


...SOUTHEAST MINNESOTA...


CITY           SKY/WX    TMP DP  RH WIND       PRES   REMARKS
ROCHESTER      PTCLDY    34  30  85 N9        30.13F WCI  27
ROCHESTER/MAYO FAIR      38  32  80 CALM      30.14R
WINONA         MOCLDY    37  34  87 NW5       30.14F WCI  34
AUSTIN         CLOUDY    37  30  75 N6        30.10F WCI  33
ALBERT LEA     PTCLDY    36  28  75 NE9       30.09F WCI  29
DODGE CENTER   PTCLDY    36  30  80 N5        30.13R WCI  32
PRESTON        CLOUDY    36  30  80 N6        30.12R WCI  31
OWATONNA       MOCLDY    32  28  86 N5        30.13F WCI  27
FARIBAULT      CLOUDY    37  30  75 N9        30.16R WCI  31
$$

...ELSEWHERE IN MINNESOTA...


CITY           SKY/WX    TMP DP  RH WIND       PRES   REMARKS
MINNEAPOLIS    CLOUDY    42  27  55 NE9       30.22R
INTNL FALLS    CLEAR     23  20  88 CALM      30.22R
DULUTH         CLEAR     29  24  82 CALM      30.20R
RED WING       CLOUDY    41  27  56 NE9       30.18R
REDWOOD FALLS  CLOUDY    38  24  57 N5        30.19R WCI  34
MANKATO        CLOUDY    36  28  73 N10       30.15R WCI  28
WORTHINGTON    PTCLDY    33  26  75 N12       30.17F WCI  24
FAIRMONT       PTCLDY    36  30  79 N7        30.15F WCI  30
$$

...SOUTHWEST WISCONSIN...


CITY           SKY/WX    TMP DP  RH WIND       PRES   REMARKS
LA CROSSE      MOCLDY    38  32  79 N7        30.09F WCI  33
PRAIRIE DU CHI PTCLDY    43  32  65 CALM      30.06S
BOSCOBEL       PTCLDY    44  35  70 NE7       30.05F
LONE ROCK      PTCLDY    43  34  70 NE6       30.06F
PLATTEVILLE    CLOUDY    44  40  86 NE10      30.06R
FORT MC COY    CLOUDY    38  32  81 NE7       30.09F WCI  32
CAMP DOUGLAS   PTCLDY    39  32  75 N5        30.07F
MAUSTON-NEW LI MOSUNNY   40  32  71 N3        30.06F
VIROQUA        FAIR      38  32  79 NE9       30.05F WCI  32
WIS DELLS      PTCLDY    41  32  70 NE9       30.06F
$$

...ELSEWHERE IN WISCONSIN...


CITY           SKY/WX    TMP DP  RH WIND       PRES   REMARKS
MILWAUKEE      CLOUDY    44  37  76 NE13G24   30.08R
MADISON        CLOUDY    44  37  76 NE12      30.07R
GREEN BAY      PTCLDY    39  30  70 N14       30.12S WCI  31
EAU CLAIRE     CLOUDY    36  27  69 NE8       30.16F WCI  30
BLACK RVR FLS  FAIR      32  32 100 N7        30.09F WCI  25
MEDFORD        PTCLDY    31  26  83 N7        30.14F WCI  24
WAUSAU         PTCLDY    33  26  75 N7        30.13F WCI  27
WIS RAPIDS     PTCLDY    38  30  73 NE16      30.11F WCI  29
MARSHFIELD     PTCLDY    35  27  72 NE10      30.11F WCI  27
RICE LAKE      CLOUDY    34  29  80 N5        30.20S WCI  30
$$

...NORTHEAST IOWA...


CITY           SKY/WX    TMP DP  RH WIND       PRES   REMARKS
WATERLOO       PTCLDY    40  34  79 N9        30.03S WCI  34
DUBUQUE        CLOUDY    44  38  79 NE14      30.04R
DECORAH        PTCLDY    41  32  70 N9G15     30.04F
MASON CITY     PTCLDY    38  32  79 N14       30.08F WCI  30
CHARLES CITY   PTCLDY    39  34  81 N13       30.07S WCI  32
OELWEIN        CLOUDY    41  36  81 NE14      30.04R
$$

...ELSEWHERE IN IOWA...


CITY           SKY/WX    TMP DP  RH WIND       PRES   REMARKS
DES MOINES     CLOUDY    45  36  70 NE17G26   30.02R
IOWA CITY      LGT RAIN  46  42  86 NE13      30.04R FOG
FORT DODGE     CLOUDY    39  30  70 N9        30.09S WCI  33
MARSHALLTOWN   CLOUDY    41  37  86 NE8       30.05R
CEDAR RAPIDS   CLOUDY    44  41  89 E13       30.07R
$$

...NORTHERN ILLINOIS...


CITY           SKY/WX    TMP DP  RH WIND       PRES   REMARKS
CHICAGO-OHARE  CLOUDY    46  39  76 NE13      30.06R
CHICAGO-MIDWAY DRIZZLE   45  43  93 N17       30.03F FOG
MOLINE         CLOUDY    47  42  83 NE10      29.98F
ROCKFORD       CLOUDY    48  42  80 NE13      30.06R
PEORIA         CLOUDY    54  52  93 NE10      29.94F FOG
$$

NOTE: "FAIR" INDICATES FEW OR NO CLOUDS BELOW 12,000 FEET WITH NO
SIGNIFICANT WEATHER AND/OR OBSTRUCTIONS TO VISIBILITY. WIND
SPEEDS ARE IN MILES-PER-HOUR.




USA.gov is the U.S. government's official web portal to all federal, state and local government web resources and services.